Saint Augustine, FL

10:36 PM EST on February 23, 2017 (GMT -0500)
Saint Augustine

Weather History for KSGJ - December, 1998

Change the Weather History Date:

Thursday, December 31, 1998

  Actual Average Record
Temperature  
Mean Temperature 48 °F -  
Max Temperature 62 °F 61 °F 83 °F (1988)
Min Temperature 35 °F 44 °F 24 °F (2000)
Degree Days  
Heating Degree Days 16    
Moisture  
Dew Point 33 °F    
Average Humidity 57    
Maximum Humidity 76    
Minimum Humidity 36    
Precipitation  
Precipitation 9.08 in - - ()
Sea Level Pressure  
Sea Level Pressure 30.19 in    
Wind  
Wind Speed 4 mph (NNW)    
Max Wind Speed 10 mph    
Max Gust Speed -    
Visibility 10 miles    
Events      
Averages and records for this station are not official NWS values.
T = Trace of Precipitation, MM = Missing Value Source: NWS Daily Summary

Daily Weather History Graph

Daily Weather History Graph

Search for Another Location

Airport or City:

Trip Planner

Search our weather history database for the weather conditions in past years. The results will help you decide how hot, cold, wet, or windy it might be!

Date:

Astronomy

Dec. 31, 1998 Rise Set
Actual Time 7:20 AM EST 5:36 PM EST
Civil Twilight 6:54 AM EST 6:02 PM EST
Nautical Twilight 6:24 AM EST 6:32 PM EST
Astronomical Twilight 5:55 AM EST 7:01 PM EST
Moon 4:32 PM EST (12/31) 5:33 AM EST (12/31)
Length of Visible Light 11h 07m
Length of Day
10h 15m
Waxing Gibbous, 97% of the Moon is Illuminated
Dec 31
Waxing Gibbous
Jan 1
Full
Jan 9
Last Quarter
Jan 17
New
Jan 24
First Quarter

Hourly Weather History & Observations

Time (EST) Temp. Windchill Dew Point Humidity Pressure Visibility Wind Dir Wind Speed Gust Speed Precip Events Conditions
12:15 AM 41.0 °F 38.0 °F 24.8 °F 53% 30.18 in 10.0 mi WNW 4.6 mph - N/A   Clear
12:35 AM 37.4 °F 33.8 °F 24.8 °F 60% 30.19 in 10.0 mi WNW 4.6 mph - N/A   Clear
12:55 AM 39.2 °F 35.0 °F 24.8 °F 56% 30.18 in 10.0 mi WNW 5.8 mph - N/A   Clear
1:15 AM 37.4 °F 32.1 °F 24.8 °F 60% 30.18 in 10.0 mi NW 6.9 mph - N/A   Clear
1:35 AM 37.4 °F 32.8 °F 24.8 °F 60% 30.18 in 10.0 mi NW 5.8 mph - N/A   Clear
2:15 AM 39.2 °F 35.0 °F 24.8 °F 56% 30.18 in 10.0 mi WNW 5.8 mph - N/A   Clear
2:55 AM 39.2 °F 35.0 °F 24.8 °F 56% 30.19 in 10.0 mi WNW 5.8 mph - N/A   Clear
3:15 AM 39.2 °F 35.0 °F 24.8 °F 56% 30.19 in 10.0 mi WNW 5.8 mph - N/A   Clear
4:15 AM 37.4 °F 33.8 °F 24.8 °F 60% 30.19 in 10.0 mi NW 4.6 mph - N/A   Clear
4:35 AM 37.4 °F 32.8 °F 24.8 °F 60% 30.19 in 10.0 mi NW 5.8 mph - N/A   Clear
5:15 AM 35.6 °F 31.7 °F 24.8 °F 65% 30.19 in 10.0 mi NW 4.6 mph - N/A   Clear
5:35 AM 39.2 °F - 26.6 °F 61% 30.19 in 10.0 mi Calm Calm - N/A   Clear
5:55 AM 37.4 °F - 26.6 °F 65% 30.19 in 10.0 mi Calm Calm - N/A   Clear
6:35 AM 35.6 °F - 26.6 °F 70% 30.19 in 10.0 mi Calm Calm - N/A   Clear
6:55 AM 35.6 °F - 26.6 °F 70% 30.20 in 10.0 mi Calm Calm - N/A   Clear
7:15 AM 37.4 °F - 26.6 °F 65% 30.20 in 10.0 mi Calm Calm - N/A   Clear
7:35 AM 35.6 °F - 26.6 °F 70% 30.21 in 10.0 mi Calm Calm - N/A   Clear
8:15 AM 39.2 °F - 28.4 °F 65% 30.21 in 10.0 mi Calm Calm - N/A   Clear
9:15 AM 48.2 °F - 33.8 °F 58% 30.23 in 10.0 mi NW 3.5 mph - N/A   Clear
9:35 AM 51.8 °F - 33.8 °F 50% 30.24 in 10.0 mi Calm Calm - N/A   Clear
9:55 AM 55.4 °F - 35.6 °F 47% 30.24 in 10.0 mi WNW 3.5 mph - N/A   Clear
10:35 AM 57.2 °F - 33.8 °F 41% 30.25 in 10.0 mi NW 5.8 mph - N/A   Clear
10:55 AM 59.0 °F - 33.8 °F 39% 30.24 in 10.0 mi NW 5.8 mph - N/A   Clear
11:15 AM 60.8 °F - 33.8 °F 36% 30.24 in 10.0 mi WNW 6.9 mph - 9.08 in   Clear
12:15 PM 62.6 °F - 37.4 °F 39% 30.21 in 10.0 mi SW 4.6 mph - N/A   Clear
12:35 PM 62.6 °F - 37.4 °F 39% 30.20 in 10.0 mi West 5.8 mph - N/A   Clear
12:55 PM 62.6 °F - 39.2 °F 42% 30.19 in 10.0 mi Calm Calm - N/A   Clear
1:55 PM 62.6 °F - 41.0 °F 45% 30.16 in 10.0 mi East 10.4 mph - N/A   Clear
2:35 PM 60.8 °F - 41.0 °F 48% 30.14 in 10.0 mi East 8.1 mph - N/A   Clear
3:15 PM 60.8 °F - 41.0 °F 48% 30.14 in 10.0 mi East 5.8 mph - N/A   Clear
3:55 PM 60.8 °F - 41.0 °F 48% 30.16 in 10.0 mi ENE 8.1 mph - N/A   Clear
4:35 PM 60.8 °F - 42.8 °F 52% 30.16 in 10.0 mi ENE 8.1 mph - N/A   Clear
4:55 PM 59.0 °F - 41.0 °F 51% 30.16 in 10.0 mi East 5.8 mph - N/A   Clear
5:15 PM 57.2 °F - 42.8 °F 59% 30.17 in 10.0 mi East 4.6 mph - N/A   Clear
5:35 PM 57.2 °F - 41.0 °F 55% 30.17 in 10.0 mi NNE 3.5 mph - N/A   Clear
6:35 PM 53.6 °F - 41.0 °F 62% 30.17 in 10.0 mi Calm Calm - N/A   Clear
6:55 PM 51.8 °F - 41.0 °F 67% 30.17 in 10.0 mi NNW 4.6 mph - N/A   Clear
7:15 PM 51.8 °F - 41.0 °F 67% 30.17 in 10.0 mi NNW 4.6 mph - N/A   Clear
8:55 PM 48.2 °F - 39.2 °F 71% 30.19 in 10.0 mi Calm Calm - N/A   Clear
9:55 PM 44.6 °F - 37.4 °F 76% 30.19 in 10.0 mi Calm Calm - N/A   Clear
10:15 PM 46.4 °F - 37.4 °F 71% 30.19 in 10.0 mi Calm Calm - N/A   Clear
10:35 PM 44.6 °F - 35.6 °F 71% 30.19 in 10.0 mi Calm Calm - N/A   Clear